{"data":{"norad_id":62737,"epoch":"2026-09-20T00:59:38.832288Z","epoch_age_seconds":210909,"freshness":"STALE","line1":"1 62737U 25014C   26263.04142167  .00011391  00000+0  42264-3 0  9996","line2":"2 62737  43.0004 140.0251 0000675 254.3116 105.7662 15.27595540 92945","mean_motion":15.2759554,"eccentricity":6.75e-5,"inclination_deg":43.0004,"raan_deg":140.0251,"arg_perigee_deg":254.3116,"mean_anomaly_deg":105.7662,"bstar":0.00042264,"rev_number":9294,"period_min":94.265789752175,"perigee_km":482.53943716306,"apogee_km":483.46569100422,"semimajor_km":6861.1395640836,"source":"CELESTRAK","updated_at":"2026-09-22T09:00:49.656140Z"}}